Jackson, MS

3:15 PM CDT on September 29, 2016 (GMT -0500)
Hawkins

Weather History for KHKS - April, 2014

Change the Weather History Date:

Sunday, April 20, 2014

  Actual Average (KJAN) Record (KJAN)
Temperature  
Mean Temperature 67 °F 65 °F  
Max Temperature 82 °F 77 °F 91 °F (1987)
Min Temperature 52 °F 53 °F 37 °F (1953)
Degree Days  
Heating Degree Days 0 3  
Month to date heating degree days 89  
Since 1 July heating degree days 2359  
Cooling Degree Days 2 3  
Month to date cooling degree days 45  
Year to date cooling degree days 82  
Growing Degree Days 17 (Base 50)    
Moisture  
Dew Point 50 °F    
Average Humidity 59    
Maximum Humidity 90    
Minimum Humidity 27    
Precipitation  
Precipitation 0.00 in 0.17 in 2.65 in (1995)
Month to date precipitation 3.52  
Year to date precipitation 18.29  
Sea Level Pressure  
Sea Level Pressure 30.13 in    
Wind  
Wind Speed 2 mph (SE)    
Max Wind Speed 9 mph    
Max Gust Speed -    
Visibility 10 miles    
Events      
T = Trace of Precipitation, MM = Missing Value Source: NWS Daily Summary

Daily Weather History Graph

Daily Weather History Graph

Search for Another Location

Airport or City:

Trip Planner

Search our weather history database for the weather conditions in past years. The results will help you decide how hot, cold, wet, or windy it might be!

Date:

Astronomy

Apr. 20, 2014 Rise Set
Actual Time 6:25 AM CDT 7:34 PM CDT
Civil Twilight 6:00 AM CDT 7:59 PM CDT
Nautical Twilight 5:30 AM CDT 8:29 PM CDT
Astronomical Twilight 4:59 AM CDT 9:01 PM CDT
Moon 12:07 AM CDT (4/20) 10:53 AM CDT (4/20)
Length of Visible Light 13h 59m
Length of Day
13h 08m
Waning Gibbous, 68% of the Moon is Illuminated
Apr 20
Waning Gibbous
Apr 22
Last Quarter
Apr 29
New
May 6
First Quarter
May 14
Full

Hourly Weather History & Observations

Time (CDT) Temp. Dew Point Humidity Pressure Visibility Wind Dir Wind Speed Gust Speed Precip Events Conditions
12:53 AM 57.0 °F 52.0 °F 83% 30.11 in 10.0 mi Calm Calm - N/A   Clear
1:53 AM 55.9 °F 51.1 °F 84% 30.10 in 10.0 mi Calm Calm - N/A   Clear
2:53 AM 54.0 °F 51.1 °F 90% 30.11 in 9.0 mi Calm Calm - N/A   Clear
3:53 AM 54.0 °F 50.0 °F 86% 30.13 in 9.0 mi Calm Calm - N/A   Clear
4:53 AM 53.1 °F 48.9 °F 86% 30.13 in 8.0 mi Calm Calm - N/A   Clear
5:53 AM 52.0 °F 48.9 °F 89% 30.14 in 7.0 mi Calm Calm - N/A   Clear
6:53 AM 52.0 °F 48.9 °F 89% 30.17 in 4.0 mi Calm Calm - N/A   Clear
7:53 AM 59.0 °F 51.1 °F 75% 30.19 in 10.0 mi ESE 5.8 mph - N/A   Clear
8:53 AM 64.0 °F 53.1 °F 67% 30.21 in 10.0 mi SE 9.2 mph - N/A   Clear
9:53 AM 68.0 °F 54.0 °F 61% 30.21 in 10.0 mi SE 9.2 mph - N/A   Clear
10:53 AM 71.1 °F 54.0 °F 55% 30.21 in 10.0 mi Calm Calm - N/A   Clear
11:53 AM 75.0 °F 53.1 °F 46% 30.19 in 10.0 mi Variable 4.6 mph - N/A   Clear
12:53 PM 79.0 °F 48.9 °F 35% 30.17 in 10.0 mi Calm Calm - N/A   Clear
1:53 PM 80.1 °F 45.0 °F 29% 30.15 in 10.0 mi Variable 3.5 mph - N/A   Clear
2:53 PM 82.0 °F 45.0 °F 27% 30.12 in 10.0 mi Variable 6.9 mph - N/A   Clear
3:53 PM 82.0 °F 46.9 °F 29% 30.10 in 10.0 mi Calm Calm - N/A   Clear
4:53 PM 81.0 °F 46.9 °F 30% 30.09 in 10.0 mi SE 6.9 mph - N/A   Clear
5:53 PM 80.1 °F 46.0 °F 30% 30.09 in 10.0 mi Calm Calm - N/A   Clear
6:53 PM 78.1 °F 46.9 °F 33% 30.07 in 10.0 mi Calm Calm - N/A   Clear
7:53 PM 72.0 °F 50.0 °F 46% 30.08 in 10.0 mi North - - N/A   Clear
8:53 PM 64.9 °F 52.0 °F 63% 30.09 in 10.0 mi Calm Calm - N/A   Clear
9:53 PM 66.0 °F 51.1 °F 59% 30.10 in 10.0 mi Calm Calm - N/A   Clear
10:53 PM 66.0 °F 51.1 °F 59% 30.10 in 10.0 mi East 4.6 mph - N/A   Clear
11:53 PM 63.0 °F 51.1 °F 65% 30.10 in 10.0 mi Calm Calm - N/A   Clear